Flag for U.S.A. Weather past 2 weeks in Las Cruces, New Mexico, U.S.A.

Now
81 °F

Sunny.


Feels Like: 79 °F
Forecast: 54 / 83 °F
Wind: 12 mph from West

Location: Las Cruces International

Current Time: Oct 25, 2014 at 6:02:08 PM

Latest Report: Oct 25, 2014 at 5:15 PM


Visibility: 10 mi

Pressure: 30.18 "Hg

Humidity: 23%

Dew point: 40 °F

Location of Las CrucesLocation

Historic Weather in Las Cruces — Graph

°F

Las Cruces temperature yesterday

Maximum temperature yesterday: 81 °F (at 4:35 PM)
Minimum temperature yesterday: 51 °F (at 7:35 AM)
Average temperature yesterday: 65 °F

Past Weeks' High & Low Weather Summary

 TemperatureHumidityPressure
High84 °F (Oct 16, 3:55 PM)97% (Oct 21, 7:15 AM)30.31 "Hg (Oct 21, 7:15 AM)
Low41 °F (Oct 14, 6:15 AM)13% (Oct 13, 12:35 AM)29.82 "Hg (Oct 12, 4:55 PM)
Average64 °F52%30.13 "Hg
* Reported Oct 10 4:15 PM — Oct 25 4:55 PM, Las Cruces, Weather by CustomWeather, © 2014

Note: Actual official high and low records may vary slightly from our data, if they occured in-between our weather recording intervals... More about our weather records

Advertising

Las Cruces weather history for previous 24 hours

 ConditionsComfort  
Time TempWeatherWind HumidityBarometerVisibility
4:55 PM
Oct 25
82 °FSunny.8 mph22%30.18 "Hg10 mi
4:15 PM82 °FSunny.9 mph22%30.19 "Hg10 mi
3:55 PM82 °FSunny.8 mph22%30.19 "Hg10 mi
3:15 PM83 °FSunny.9 mph21%30.20 "Hg10 mi
2:55 PM81 °FSunny.5 mph24%30.20 "Hg10 mi
2:35 PM81 °FSunny.No wind25%30.21 "Hg10 mi
2:15 PM82 °FSunny.6 mph24%30.22 "Hg10 mi
1:55 PM80 °FSunny.No wind25%30.22 "Hg10 mi
1:35 PM80 °FSunny.6 mph26%30.23 "Hg10 mi
1:15 PM79 °FSunny.8 mph25%30.24 "Hg10 mi
12:55 PM79 °FSunny.6 mph28%30.26 "Hg10 mi
12:35 PM78 °FSunny.6 mph28%30.27 "Hg10 mi
12:15 PM77 °FSunny.5 mph32%30.27 "Hg10 mi
11:55 AM76 °FSunny.5 mph32%30.28 "Hg10 mi
11:35 AM74 °FSunny.6 mph34%30.28 "Hg10 mi
11:15 AM73 °FSunny.5 mph36%30.29 "Hg10 mi
10:55 AM72 °FSunny.3 mph37%30.29 "Hg10 mi
10:35 AM71 °FSunny.No wind39%30.29 "Hg10 mi
10:15 AM69 °FSunny.No wind42%30.29 "Hg10 mi
9:55 AM69 °FSunny.3 mph45%30.29 "Hg10 mi
9:35 AM68 °FSunny.3 mph47%30.29 "Hg10 mi
9:15 AM66 °FSunny.3 mph49%30.29 "Hg10 mi
8:55 AM65 °FSunny.No wind52%30.28 "Hg10 mi
8:35 AM61 °FSunny.No wind61%30.28 "Hg10 mi
8:15 AM57 °FClear.No wind71%30.27 "Hg10 mi
7:55 AM53 °FClear.No wind75%30.27 "Hg10 mi
7:35 AM50 °FClear.No wind80%30.26 "Hg10 mi
7:15 AM50 °FClear.No wind78%30.25 "Hg10 mi
6:55 AM50 °FClear.No wind82%30.25 "Hg10 mi
6:35 AM53 °FClear.No wind73%30.25 "Hg10 mi
6:15 AM54 °FClear.3 mph70%30.24 "Hg10 mi
5:55 AM54 °FClear.5 mph68%30.24 "Hg10 mi
5:35 AM53 °FClear.No wind73%30.24 "Hg10 mi
5:15 AM52 °FClear.No wind76%30.23 "Hg10 mi
4:55 AM51 °FClear.No wind80%30.23 "Hg10 mi
4:35 AM52 °FClear.No wind78%30.23 "Hg10 mi
4:15 AM53 °FClear.No wind78%30.23 "Hg10 mi
3:55 AM53 °FClear.No wind75%30.24 "Hg10 mi
3:35 AM54 °FClear.No wind73%30.24 "Hg10 mi
3:15 AM54 °FClear.No wind74%30.24 "Hg10 mi
2:55 AM55 °FClear.No wind73%30.25 "Hg10 mi
2:35 AM54 °FClear.5 mph73%30.24 "Hg10 mi
2:15 AM55 °FClear.No wind71%30.24 "Hg10 mi
1:55 AM57 °FClear.No wind64%30.24 "Hg10 mi
1:35 AM57 °FClear.No wind65%30.25 "Hg10 mi
1:15 AM56 °FClear.No wind67%30.25 "Hg10 mi
12:55 AM57 °FClear.No wind69%30.25 "Hg10 mi
12:15 AM59 °FClear.No wind62%30.25 "Hg10 mi
11:55 PM
Oct 24
58 °FClear.No wind67%30.25 "Hg10 mi
11:35 PM59 °FClear.3 mph64%30.25 "Hg10 mi
11:15 PM59 °FClear.5 mph63%30.25 "Hg10 mi
10:55 PM60 °FClear.5 mph62%30.25 "Hg10 mi
10:35 PM60 °FClear.5 mph64%30.25 "Hg10 mi
10:15 PM60 °FClear.5 mph64%30.25 "Hg10 mi
9:55 PM61 °FClear.5 mph64%30.25 "Hg10 mi
9:15 PM63 °FClear.3 mph59%30.24 "Hg10 mi
8:55 PM63 °FClear.3 mph60%30.23 "Hg10 mi
8:35 PM64 °FClear.3 mph58%30.23 "Hg10 mi
8:15 PM65 °FClear.3 mph53%30.23 "Hg10 mi
7:55 PM68 °FClear.5 mph49%30.23 "Hg10 mi
7:35 PM69 °FClear.6 mph46%30.22 "Hg10 mi
7:15 PM70 °FSunny.5 mph44%30.21 "Hg10 mi
6:55 PM71 °FSunny.5 mph42%30.21 "Hg10 mi
6:35 PM73 °FSunny.3 mph39%30.20 "Hg10 mi
6:15 PM76 °FSunny.5 mph34%30.20 "Hg10 mi
Weather by CustomWeather, © 2014

See weather overviewHow to use our weather pages